Vorticity
8 8 9 10 10 11 11 11 11 11 11 11 11 11 12 12 13 13 14 14 14 14 13 13 12 12 12 12 11 11 11 11 11 11 12 12 13 13 13 14 14 14 13 13 12 12 12 12 12 13 13 14 14 14 14 14 14 13 13 12 11 10 10 10 11 12 14 16 17
9 9 9 10 10 11 12 12 12 12 12 12 12 12 12 12 13 13 13 14 14 14 14 14 13 13 12 12 12 11 11 11 11 11 12 12 12 13 13 14 14 13 13 13 13 13 12 12 12 13 13 14 14 14 14 15 15 15 15 14 13 12 11 10 10 10 12 14 16
10 10 10 11 11 12 12 13 13 13 13 13 13 12 12 12 12 13 13 13 13 14 14 14 14 14 14 13 13 12 12 11 11 11 11 12 12 13 13 14 14 13 13 13 13 13 13 13 13 13 13 14 14 14 15 15 16 16 16 16 15 14 13 12 10 10 10 12 14
12 12 12 12 12 13 13 13 13 13 13 13 13 13 13 13 13 12 12 12 13 13 14 14 15 15 15 14 14 13 13 12 11 11 11 12 12 13 13 14 14 14 13 13 13 13 14 14 14 14 14 14 14 14 15 16 16 16 16 17 17 16 15 14 13 11 10 10 12
14 14 14 13 13 13 13 13 13 13 14 14 14 14 14 14 13 13 13 13 13 13 13 13 14 15 15 15 15 14 13 12 12 11 11 12 12 13 14 14 14 14 14 13 14 14 14 15 15 14 14 14 14 15 16 16 16 16 16 17 17 17 17 16 15 13 11 10 10
16 15 15 15 14 13 13 13 13 13 13 13 14 14 14 14 14 14 14 13 13 13 13 13 14 14 15 15 15 15 14 13 12 12 11 12 13 13 14 15 15 15 15 15 15 15 15 16 16 15 15 15 15 15 16 16 16 17 17 17 18 18 18 18 18 16 14 12 10
17 16 16 15 15 14 14 13 13 13 12 13 13 13 13 13 14 14 14 13 13 13 13 13 14 14 15 15 15 15 14 13 12 12 12 12 13 14 14 14 15 15 15 15 15 15 16 16 16 16 16 15 15 16 16 16 17 18 18 18 18 18 19 20 19 18 16 14 12
17 17 17 16 16 15 15 14 13 13 13 13 13 13 13 12 13 13 13 13 13 13 13 13 14 14 15 16 16 15 14 13 12 12 11 12 12 13 14 14 14 15 15 15 14 14 15 15 16 16 16 15 15 16 16 16 17 18 18 19 18 18 18 19 20 19 18 16 14
17 17 17 17 17 17 16 16 15 14 13 13 13 12 12 12 12 12 13 13 13 13 12 13 13 14 16 17 17 16 15 13 12 12 11 11 12 12 13 13 14 14 14 14 13 13 13 14 15 16 16 16 16 16 17 17 18 19 20 20 19 18 18 18 19 19 19 18 16
16 17 17 17 17 18 17 17 17 16 15 14 13 13 12 12 12 12 13 13 13 13 13 12 13 14 16 18 18 17 15 14 12 12 11 11 11 11 11 12 13 13 13 13 13 12 13 13 14 15 16 17 17 17 18 18 18 20 21 22 21 20 18 17 18 18 19 18 17
14 15 15 15 16 16 17 17 17 17 16 16 15 14 13 13 13 12 12 13 13 13 12 12 12 14 16 18 18 18 16 14 13 12 11 10 10 9 9 10 11 12 12 12 12 12 13 13 14 15 16 16 17 17 18 18 19 20 21 22 23 22 20 18 18 18 18 18 17
11 12 12 12 13 14 15 16 16 16 16 16 16 16 16 15 14 13 13 13 13 13 12 12 12 12 14 16 18 18 17 15 14 13 12 10 8 7 7 8 9 10 10 11 11 12 12 13 15 15 16 16 16 17 18 18 19 19 20 21 22 23 23 21 19 18 18 18 17
9 9 9 10 10 11 12 12 13 13 14 14 15 16 16 16 16 15 15 15 14 14 13 13 12 12 12 14 16 18 18 17 15 14 12 11 8 7 6 6 8 8 9 10 10 10 11 13 14 15 16 15 16 16 18 18 18 19 19 19 20 22 23 24 22 20 19 19 18
7 7 8 8 8 9 9 10 10 10 11 12 13 14 14 15 16 16 16 16 15 14 14 14 12 11 11 11 14 17 19 19 17 15 13 12 10 8 6 5 6 7 8 9 9 9 10 11 13 14 14 14 14 15 17 18 19 19 18 18 18 20 21 23 22 21 20 20 20
7 7 7 8 8 8 8 8 8 8 9 10 10 11 12 13 14 14 15 15 15 15 15 15 13 12 10 10 12 15 18 19 18 16 14 13 12 10 7 5 6 6 8 8 8 8 8 9 10 11 12 12 12 14 16 18 19 19 19 18 17 16 16 18 19 20 20 20 19
8 8 8 8 8 8 8 8 7 7 8 8 8 9 10 11 11 12 13 14 14 14 15 15 14 13 12 10 10 12 15 19 19 17 15 14 13 12 9 7 6 7 7 8 8 7 6 6 7 8 9 10 11 13 15 17 18 19 19 18 15 13 12 11 12 14 17 19 19
9 9 9 9 9 9 8 8 8 8 8 8 8 8 9 9 10 10 12 12 13 13 14 15 15 14 13 12 10 10 13 16 19 18 16 14 14 13 12 10 9 8 8 8 7 7 6 4 3 4 6 8 10 12 15 18 19 19 19 17 15 13 12 10 8 10 13 17 19
10 10 10 10 10 9 9 9 8 8 8 8 8 8 8 9 9 10 10 11 12 12 13 14 15 15 14 13 12 10 11 14 18 19 18 16 14 13 13 13 12 10 9 8 7 7 6 4 3 2 3 5 7 10 14 17 19 20 20 19 18 17 16 13 10 9 11 14 17
10 10 11 11 10 10 10 10 10 10 9 9 9 8 9 9 9 9 10 10 11 12 13 14 15 15 15 15 13 12 11 12 15 18 19 18 16 14 14 14 14 14 13 13 12 10 8 6 4 3 3 4 6 8 11 15 17 19 20 21 22 22 21 19 15 12 11 12 13
11 11 11 11 11 11 11 11 11 10 10 10 10 9 9 9 9 10 10 10 11 11 12 13 14 15 16 16 15 13 12 11 13 16 19 20 18 16 15 15 18 20 22 23 21 18 15 11 8 6 5 5 6 7 9 12 14 16 18 20 23 25 26 24 21 17 14 12 10
11 11 11 11 11 11 11 11 11 11 11 11 10 10 10 10 10 10 10 10 11 11 12 13 14 15 16 17 17 16 14 12 12 14 18 20 19 18 17 18 24 29 31 29 24 22 20 17 14 11 8 7 7 7 8 9 10 12 14 17 20 23 26 27 25 22 19 15 12
11 11 11 11 11 11 11 11 12 12 12 11 11 10 10 10 10 10 11 11 12 12 12 13 13 15 16 18 18 17 16 13 12 13 16 19 20 19 21 27 32 33 29 23 16 16 20 23 20 16 13 10 9 8 7 6 6 8 11 14 16 18 21 23 24 24 22 19 16
11 11 11 11 11 11 12 12 12 12 12 11 11 11 11 10 10 11 11 12 13 13 13 13 13 14 15 17 19 19 18 15 13 13 15 18 19 21 26 38 32 25 20 15 6 8 17 26 23 19 15 12 11 9 8 6 4 5 7 10 13 14 16 18 19 20 20 18 16
11 11 11 11 12 12 12 12 12 12 12 12 12 11 11 11 11 12 12 13 14 15 15 15 14 14 15 16 18 19 19 17 15 14 14 16 19 24 30 36 21 13 10 13 -5 -3 8 22 22 20 18 15 12 10 8 7 4 2 2 5 9 12 13 14 16 19 20 20 20
11 11 11 12 12 12 13 13 13 13 12 12 12 11 11 12 12 13 14 15 16 17 17 17 16 16 15 15 18 19 20 20 17 16 15 16 19 27 32 23 12 5 4 14 -8 -14 -5 20 24 24 22 20 16 12 9 7 4 1 -1 -1 5 9 11 11 14 20 24 27 27
11 12 12 13 13 13 13 14 13 13 12 12 12 12 12 13 14 15 16 16 17 18 20 20 19 18 16 16 17 19 20 21 19 18 16 16 20 29 31 12 10 6 4 9 -7 -15 -7 26 32 31 27 24 20 16 12 9 6 2 -2 -4 -1 4 8 9 10 17 25 29 30
12 12 13 13 13 14 14 14 13 13 12 12 13 13 14 14 15 16 16 16 17 19 20 22 21 20 19 17 17 18 20 21 20 19 18 16 21 29 28 6 8 8 6 3 -7 -13 -6 22 31 34 32 28 24 20 17 14 10 5 1 -3 -4 -2 2 5 6 13 20 26 26
12 13 13 13 14 14 14 13 13 13 13 13 14 14 14 15 16 16 16 16 16 18 20 23 23 22 21 19 18 18 19 21 21 20 18 17 23 29 25 4 5 7 8 3 -6 -17 -20 -4 10 24 34 32 28 25 22 21 18 13 7 2 -2 -3 -3 -0 3 8 15 22 16
13 13 14 14 15 14 14 14 14 14 14 14 14 14 15 15 14 14 14 14 15 17 20 22 24 24 23 21 20 18 19 20 21 20 19 18 24 28 22 1 2 5 7 6 -1 -13 -19 -10 2 17 28 28 27 26 26 26 25 22 16 10 4 -1 -3 -3 0 4 10 20 9
13 14 14 15 15 15 15 15 14 14 14 14 14 14 14 13 13 13 12 12 13 15 18 21 24 26 25 23 21 20 19 20 21 22 21 19 24 27 20 -2 -1 3 7 6 0 -9 -17 -21 2 16 23 21 22 24 25 27 28 27 24 20 13 7 3 1 1 3 7 14 9
14 14 15 15 15 15 15 14 14 14 14 14 14 14 13 12 11 11 11 11 12 13 15 19 24 27 28 26 24 21 20 20 22 23 23 21 24 26 19 -3 -4 2 8 7 1 -5 -14 -28 -4 14 23 21 21 22 24 28 30 31 31 29 23 18 12 9 7 6 7 10 10
14 14 15 16 16 15 15 14 14 15 15 15 14 12 10 9 9 9 9 9 9 10 12 15 21 26 28 29 27 24 22 21 22 24 24 22 24 26 20 -1 -9 -3 8 12 10 4 -7 -27 -7 14 27 25 21 20 20 23 28 31 34 34 31 27 22 18 16 13 11 9 10
14 15 15 16 16 15 15 15 15 15 15 15 13 10 8 6 5 6 6 7 8 9 10 12 17 22 27 30 29 27 25 22 23 24 25 24 24 26 22 6 -11 -9 2 13 15 10 -3 -23 -10 10 28 29 23 18 16 16 20 24 28 32 33 32 30 26 23 21 18 14 12
14 15 16 16 16 15 15 15 15 16 16 15 12 9 6 3 3 4 5 6 7 8 9 10 13 18 23 28 30 30 28 25 24 25 26 26 24 25 23 14 -6 -13 -8 6 13 11 -2 -24 -19 1 22 30 26 22 18 15 15 17 20 24 28 30 32 32 30 28 26 22 17
14 15 16 16 16 16 16 15 16 16 17 16 13 8 4 2 1 2 3 4 5 6 7 9 10 13 18 23 28 30 30 27 26 26 26 27 25 24 23 20 4 -9 -14 -6 4 8 2 -19 -20 -4 16 27 26 24 22 18 15 14 15 18 21 25 29 32 32 33 35 36 28
14 15 15 16 16 16 16 16 16 17 17 17 14 9 5 1 -0 0 1 2 4 5 6 7 8 10 12 17 24 28 30 29 27 26 26 27 26 25 24 22 14 1 -12 -15 -8 -1 0 -10 -16 -5 11 22 22 22 21 19 16 14 14 15 18 21 25 28 30 33 39 49 44
15 15 15 15 16 16 16 16 16 17 17 18 15 12 7 2 -0 -1 0 1 2 4 5 6 6 7 9 12 18 23 27 28 27 26 26 27 28 27 25 24 20 11 -1 -12 -17 -12 -4 0 -10 -6 5 16 19 19 18 17 16 15 14 14 16 19 23 27 28 26 26 34 44
15 15 15 15 16 16 16 17 17 17 17 18 16 14 10 5 2 0 0 1 2 3 4 4 5 6 7 8 13 18 23 25 25 24 24 25 27 28 27 25 22 17 10 -0 -12 -13 -6 5 -8 -9 -1 11 17 19 17 13 13 14 14 14 15 17 22 27 24 19 14 17 29
14 15 15 15 15 16 16 17 17 17 18 18 18 16 13 8 4 2 1 1 2 2 3 3 4 5 6 7 10 15 20 23 23 22 21 21 24 26 27 27 24 21 16 10 -2 -9 -8 4 -8 -11 -6 7 17 21 20 14 11 10 12 12 12 14 18 24 21 12 1 -6 -2
14 14 14 15 15 15 16 17 17 18 18 18 18 17 15 12 8 5 2 1 2 2 2 3 3 4 5 6 8 12 18 22 21 19 17 16 18 21 24 27 26 24 20 16 8 -2 -6 3 -6 -10 -8 3 16 22 24 18 12 9 9 10 10 10 13 18 21 13 -1 -17 -20
13 13 14 14 14 14 15 16 16 17 18 19 19 19 18 16 12 8 5 3 2 2 2 3 3 3 4 5 7 11 15 19 19 18 15 11 12 15 20 25 27 26 24 20 17 8 1 0 -8 -14 -14 -1 11 20 24 23 18 14 10 9 9 9 9 11 17 17 10 -4 -11
Height
3025 3022 3020 3018 3016 3014 3012 3010 3008 3006 3004 3002 3000 2999 2997 2996 2994 2993 2991 2989 2988 2986 2985 2983 2983 2981 2980 2979 2978 2977 2976 2976 2975 2974 2973 2972 2971 2970 2970 2969 2968 2967 2966 2965 2964 2963 2963 2962 2962 2961 2961 2961 2960 2960 2960 2960 2960 2960 2960 2961 2961 2961 2962 2962 2963 2963 2963 2963 2964
3023 3020 3018 3016 3014 3012 3010 3008 3006 3004 3002 3000 2998 2996 2995 2993 2992 2991 2989 2988 2986 2984 2983 2981 2980 2979 2978 2977 2976 2975 2974 2973 2972 2971 2971 2970 2969 2968 2967 2966 2965 2964 2963 2962 2962 2961 2960 2959 2959 2958 2958 2958 2958 2957 2957 2957 2957 2957 2957 2957 2958 2958 2958 2959 2959 2959 2960 2960 2961
3020 3018 3016 3014 3012 3010 3008 3006 3004 3002 3000 2998 2996 2994 2993 2991 2990 2988 2987 2985 2983 2982 2980 2979 2978 2977 2976 2975 2974 2973 2972 2970 2970 2969 2968 2967 2966 2966 2965 2964 2963 2962 2961 2960 2959 2958 2957 2957 2956 2956 2955 2955 2954 2954 2954 2954 2954 2954 2954 2954 2954 2955 2955 2955 2956 2956 2957 2957 2957
3018 3016 3014 3012 3010 3008 3005 3003 3001 3000 2998 2996 2994 2992 2990 2989 2987 2986 2984 2983 2981 2979 2978 2977 2975 2974 2973 2973 2972 2971 2970 2968 2968 2966 2966 2965 2964 2963 2963 2961 2960 2959 2958 2958 2957 2956 2955 2954 2953 2953 2952 2952 2952 2951 2951 2951 2951 2951 2950 2950 2951 2951 2952 2952 2952 2953 2953 2954 2954
3016 3014 3012 3010 3008 3005 3003 3001 2999 2998 2996 2994 2992 2990 2988 2987 2985 2983 2982 2981 2979 2978 2976 2974 2973 2972 2971 2970 2969 2968 2968 2967 2965 2964 2963 2963 2962 2961 2960 2959 2958 2957 2956 2955 2954 2953 2953 2952 2951 2950 2950 2949 2949 2948 2948 2948 2948 2948 2948 2947 2948 2948 2948 2948 2949 2950 2950 2951 2951
3014 3012 3010 3008 3006 3003 3001 2999 2997 2995 2993 2992 2990 2988 2986 2984 2983 2982 2980 2978 2977 2975 2974 2972 2971 2970 2968 2968 2967 2966 2965 2964 2963 2962 2961 2960 2960 2959 2958 2957 2956 2955 2954 2953 2952 2951 2950 2949 2949 2948 2947 2947 2946 2946 2945 2945 2945 2944 2944 2944 2945 2945 2945 2945 2946 2946 2947 2947 2948
3012 3010 3008 3006 3004 3002 3000 2998 2996 2993 2992 2990 2988 2986 2984 2983 2981 2979 2978 2976 2975 2973 2972 2970 2969 2968 2967 2965 2964 2963 2963 2962 2961 2960 2959 2958 2958 2957 2956 2955 2954 2953 2952 2951 2950 2949 2948 2947 2946 2946 2945 2944 2944 2943 2943 2942 2942 2941 2941 2941 2942 2942 2942 2942 2943 2943 2944 2944 2944
3010 3008 3006 3004 3002 3000 2998 2996 2994 2992 2990 2988 2986 2984 2983 2981 2979 2978 2976 2974 2973 2971 2970 2968 2967 2966 2964 2963 2962 2961 2960 2960 2959 2958 2957 2956 2955 2954 2953 2953 2952 2951 2950 2949 2948 2947 2946 2945 2944 2943 2943 2942 2941 2941 2940 2940 2939 2938 2938 2938 2938 2939 2939 2939 2939 2940 2941 2941 2942
3008 3006 3004 3002 3000 2998 2996 2994 2992 2990 2988 2986 2984 2983 2981 2979 2977 2976 2974 2973 2971 2969 2968 2966 2965 2964 2963 2961 2960 2959 2958 2957 2957 2956 2955 2954 2953 2952 2951 2950 2949 2948 2948 2947 2946 2945 2944 2943 2943 2942 2941 2940 2939 2938 2938 2937 2937 2936 2936 2935 2935 2936 2936 2936 2937 2937 2938 2938 2939
3007 3005 3003 3001 2999 2997 2995 2993 2991 2989 2987 2985 2983 2981 2979 2977 2975 2974 2972 2970 2969 2968 2966 2964 2963 2962 2961 2960 2958 2957 2956 2955 2954 2953 2952 2952 2951 2950 2949 2948 2947 2946 2945 2944 2943 2943 2942 2941 2941 2940 2939 2938 2937 2937 2936 2935 2934 2934 2933 2933 2933 2933 2933 2933 2933 2934 2935 2935 2936
3006 3003 3002 2999 2997 2995 2993 2991 2989 2987 2985 2983 2981 2979 2978 2976 2974 2972 2970 2968 2967 2966 2964 2962 2961 2960 2959 2958 2957 2955 2954 2953 2952 2951 2950 2949 2948 2948 2947 2946 2945 2944 2943 2942 2941 2940 2940 2939 2939 2938 2937 2936 2935 2935 2934 2933 2933 2932 2931 2931 2931 2930 2930 2930 2931 2931 2932 2933 2933
3004 3002 3000 2998 2996 2994 2992 2990 2988 2986 2984 2982 2980 2978 2976 2974 2972 2970 2968 2967 2965 2964 2962 2961 2959 2958 2957 2956 2954 2953 2952 2951 2950 2949 2948 2947 2946 2945 2944 2944 2943 2942 2941 2940 2939 2938 2938 2937 2937 2936 2935 2934 2933 2933 2932 2931 2931 2930 2929 2929 2928 2928 2928 2928 2928 2929 2929 2930 2931
3003 3001 2999 2997 2995 2993 2991 2989 2987 2984 2982 2980 2978 2976 2974 2972 2970 2968 2967 2965 2963 2962 2960 2959 2957 2956 2955 2953 2953 2952 2950 2949 2948 2947 2946 2945 2944 2943 2942 2942 2941 2940 2939 2938 2938 2937 2936 2935 2935 2934 2933 2932 2931 2931 2930 2929 2928 2928 2927 2927 2926 2926 2926 2926 2926 2926 2927 2928 2928
3002 3000 2998 2996 2993 2991 2989 2987 2985 2983 2981 2979 2977 2974 2973 2971 2968 2967 2965 2963 2961 2960 2958 2957 2956 2954 2953 2952 2951 2949 2948 2947 2946 2945 2944 2943 2942 2941 2940 2940 2939 2938 2938 2937 2936 2935 2934 2934 2933 2932 2931 2930 2929 2928 2928 2927 2926 2926 2925 2925 2924 2924 2924 2924 2924 2924 2925 2925 2925
3001 2999 2997 2994 2992 2990 2988 2986 2983 2981 2979 2977 2975 2973 2971 2969 2967 2965 2963 2961 2959 2958 2956 2955 2953 2952 2951 2950 2948 2948 2947 2946 2945 2943 2943 2942 2941 2940 2939 2938 2937 2936 2936 2935 2934 2933 2933 2932 2931 2930 2929 2928 2928 2927 2926 2925 2924 2924 2923 2923 2923 2922 2922 2922 2922 2922 2923 2923 2923
3000 2998 2995 2993 2991 2988 2986 2984 2982 2979 2978 2975 2973 2971 2969 2967 2965 2963 2961 2959 2958 2956 2954 2953 2952 2950 2949 2948 2947 2946 2945 2944 2943 2942 2941 2940 2939 2938 2937 2936 2935 2934 2934 2933 2932 2931 2931 2930 2930 2929 2928 2927 2926 2925 2924 2923 2923 2922 2922 2921 2921 2920 2920 2920 2920 2920 2920 2921 2921
2998 2996 2994 2992 2989 2987 2985 2983 2980 2978 2976 2974 2972 2970 2968 2965 2963 2962 2959 2957 2956 2954 2953 2951 2950 2948 2947 2946 2945 2944 2943 2942 2941 2940 2939 2938 2937 2936 2935 2934 2933 2933 2932 2931 2930 2929 2929 2928 2928 2927 2926 2925 2924 2923 2922 2921 2921 2920 2920 2919 2919 2919 2918 2918 2918 2918 2918 2918 2919
2997 2995 2992 2990 2988 2986 2983 2981 2979 2977 2974 2972 2970 2968 2966 2964 2962 2960 2958 2956 2954 2952 2951 2949 2948 2946 2945 2944 2943 2942 2941 2940 2939 2938 2938 2936 2935 2934 2933 2933 2932 2931 2931 2930 2929 2928 2927 2926 2926 2925 2924 2923 2923 2922 2921 2920 2919 2918 2918 2918 2918 2917 2917 2917 2917 2917 2917 2917 2917
2995 2993 2991 2988 2986 2984 2982 2979 2977 2975 2973 2971 2968 2967 2964 2963 2960 2958 2956 2954 2953 2951 2949 2948 2946 2944 2943 2942 2941 2940 2939 2938 2938 2937 2936 2935 2933 2933 2932 2931 2931 2930 2930 2929 2928 2926 2925 2924 2924 2923 2923 2922 2921 2920 2919 2918 2918 2917 2917 2916 2916 2916 2915 2915 2915 2915 2915 2915 2916
2993 2991 2989 2987 2984 2982 2980 2978 2975 2973 2971 2969 2967 2965 2963 2961 2959 2957 2955 2953 2951 2949 2947 2946 2944 2943 2941 2940 2939 2938 2937 2936 2936 2935 2934 2933 2932 2931 2931 2930 2930 2929 2929 2928 2927 2924 2923 2922 2922 2921 2921 2920 2919 2918 2918 2917 2916 2916 2915 2915 2914 2914 2914 2913 2913 2913 2914 2914 2914
2992 2989 2987 2985 2982 2980 2978 2976 2973 2971 2969 2967 2965 2963 2962 2959 2958 2955 2953 2951 2949 2948 2946 2944 2942 2941 2939 2938 2937 2937 2935 2934 2933 2933 2932 2931 2930 2930 2929 2929 2929 2928 2928 2927 2925 2923 2921 2920 2919 2919 2918 2918 2917 2917 2916 2916 2915 2915 2914 2913 2913 2913 2913 2912 2912 2912 2912 2912 2913
2990 2988 2985 2983 2981 2978 2976 2974 2972 2970 2968 2966 2964 2962 2960 2958 2956 2954 2952 2950 2948 2946 2944 2943 2941 2939 2938 2936 2935 2934 2933 2933 2932 2931 2930 2929 2928 2928 2928 2928 2928 2928 2926 2925 2922 2920 2918 2918 2917 2917 2916 2916 2915 2915 2915 2914 2914 2914 2913 2913 2912 2912 2911 2911 2911 2911 2911 2911 2911
2988 2986 2983 2981 2979 2977 2975 2973 2970 2968 2966 2964 2962 2960 2958 2957 2955 2953 2951 2948 2947 2945 2943 2941 2939 2938 2936 2934 2933 2933 2932 2931 2930 2929 2928 2928 2927 2927 2927 2927 2927 2926 2924 2922 2920 2919 2918 2917 2915 2914 2914 2913 2913 2913 2913 2913 2913 2913 2912 2912 2911 2911 2911 2910 2910 2910 2909 2909 2909
2987 2984 2982 2980 2978 2975 2973 2971 2969 2967 2965 2963 2961 2959 2957 2955 2953 2951 2949 2947 2945 2943 2941 2939 2937 2936 2934 2933 2932 2931 2930 2929 2928 2928 2927 2926 2926 2926 2926 2926 2925 2923 2921 2918 2918 2919 2920 2917 2914 2912 2912 2912 2912 2912 2912 2912 2912 2912 2911 2911 2910 2910 2910 2910 2910 2909 2909 2908 2908
2985 2983 2981 2978 2976 2974 2972 2970 2968 2965 2963 2961 2959 2957 2955 2953 2951 2949 2947 2945 2943 2941 2939 2938 2936 2934 2932 2931 2930 2929 2928 2927 2926 2925 2925 2924 2924 2924 2924 2924 2923 2921 2918 2917 2915 2919 2920 2916 2912 2911 2910 2910 2910 2910 2910 2910 2910 2910 2910 2910 2909 2909 2909 2909 2909 2909 2909 2908 2908
2984 2982 2980 2978 2975 2973 2971 2968 2966 2964 2962 2960 2958 2956 2954 2952 2950 2948 2945 2943 2941 2939 2938 2936 2934 2932 2930 2929 2928 2927 2926 2925 2924 2923 2923 2923 2923 2923 2923 2922 2920 2919 2917 2915 2914 2916 2917 2913 2911 2909 2909 2908 2908 2908 2908 2908 2908 2909 2909 2908 2908 2908 2908 2908 2908 2908 2908 2908 2908
2983 2981 2978 2976 2974 2972 2969 2967 2965 2963 2961 2958 2957 2954 2953 2950 2948 2946 2944 2942 2940 2938 2936 2934 2932 2930 2928 2927 2926 2925 2924 2923 2922 2922 2921 2921 2921 2921 2921 2920 2918 2917 2916 2914 2913 2913 2913 2913 2909 2908 2907 2907 2907 2907 2907 2907 2907 2907 2907 2907 2907 2907 2907 2907 2908 2908 2908 2907 2907
2982 2979 2977 2975 2973 2971 2968 2966 2964 2962 2959 2957 2955 2953 2951 2949 2947 2945 2943 2941 2938 2937 2934 2933 2930 2928 2926 2925 2924 2923 2922 2921 2920 2920 2919 2919 2919 2919 2919 2918 2917 2916 2915 2913 2912 2911 2911 2913 2910 2907 2905 2905 2905 2905 2905 2905 2905 2905 2905 2905 2905 2906 2906 2906 2906 2907 2907 2907 2906
2980 2978 2976 2974 2972 2969 2967 2965 2963 2960 2958 2956 2954 2952 2950 2948 2946 2944 2942 2939 2937 2935 2933 2931 2928 2926 2924 2923 2922 2921 2920 2919 2918 2918 2918 2917 2918 2918 2918 2917 2916 2914 2913 2912 2911 2909 2910 2913 2910 2906 2904 2903 2903 2903 2904 2904 2903 2903 2903 2903 2904 2904 2905 2905 2905 2905 2905 2905 2905
2979 2977 2974 2972 2970 2968 2966 2963 2961 2959 2957 2954 2953 2951 2949 2947 2945 2943 2941 2938 2936 2934 2932 2929 2927 2925 2923 2921 2920 2919 2918 2918 2917 2916 2916 2916 2916 2916 2916 2916 2914 2913 2912 2911 2910 2908 2909 2912 2908 2905 2902 2902 2902 2902 2903 2902 2902 2902 2902 2902 2902 2902 2903 2903 2904 2904 2904 2904 2904
2977 2975 2973 2971 2969 2967 2964 2962 2960 2958 2956 2953 2951 2949 2948 2946 2944 2942 2939 2937 2935 2933 2931 2929 2927 2924 2922 2920 2918 2918 2917 2916 2915 2915 2914 2914 2914 2914 2914 2914 2913 2912 2911 2910 2909 2908 2908 2910 2907 2903 2901 2900 2901 2901 2901 2901 2901 2900 2900 2900 2900 2901 2901 2901 2902 2903 2903 2903 2903
2976 2974 2972 2969 2968 2965 2963 2961 2959 2957 2954 2952 2950 2948 2947 2945 2943 2941 2939 2937 2934 2933 2930 2928 2926 2923 2921 2919 2918 2916 2915 2914 2914 2913 2913 2913 2912 2912 2912 2912 2911 2910 2909 2908 2908 2907 2908 2909 2907 2903 2901 2899 2900 2900 2900 2900 2900 2899 2899 2899 2899 2899 2899 2899 2900 2901 2901 2901 2901
2974 2973 2970 2968 2966 2964 2962 2960 2958 2956 2953 2951 2949 2948 2946 2944 2943 2940 2938 2936 2934 2932 2929 2927 2925 2922 2920 2918 2916 2915 2914 2913 2913 2912 2911 2911 2911 2910 2910 2910 2910 2909 2908 2908 2907 2906 2907 2908 2907 2904 2900 2899 2898 2899 2899 2899 2899 2898 2898 2898 2898 2898 2898 2898 2898 2898 2899 2899 2899
2973 2971 2969 2967 2965 2963 2960 2958 2956 2954 2953 2950 2948 2947 2945 2943 2941 2940 2938 2936 2933 2931 2929 2926 2924 2922 2919 2917 2915 2914 2913 2912 2911 2911 2910 2909 2909 2909 2908 2908 2908 2908 2908 2907 2906 2906 2906 2907 2907 2904 2901 2898 2898 2898 2898 2898 2898 2898 2897 2897 2897 2897 2896 2896 2896 2896 2896 2897 2897
2971 2969 2967 2965 2963 2961 2959 2957 2955 2953 2951 2949 2948 2946 2944 2942 2940 2939 2937 2935 2933 2931 2928 2926 2924 2922 2919 2917 2915 2913 2912 2911 2910 2909 2909 2908 2908 2907 2907 2906 2906 2906 2906 2906 2906 2905 2905 2906 2906 2904 2901 2898 2897 2897 2897 2897 2897 2897 2897 2896 2896 2896 2896 2895 2895 2895 2894 2894 2894
2970 2968 2966 2964 2962 2960 2958 2956 2954 2952 2950 2948 2947 2945 2943 2941 2939 2938 2936 2934 2933 2930 2928 2926 2924 2922 2919 2917 2915 2913 2911 2910 2909 2908 2908 2907 2906 2906 2905 2905 2905 2905 2905 2905 2905 2904 2904 2904 2905 2903 2900 2898 2896 2896 2896 2896 2896 2896 2896 2896 2896 2896 2895 2895 2894 2894 2894 2893 2893
2968 2966 2964 2962 2960 2958 2956 2954 2953 2951 2949 2947 2945 2943 2942 2940 2938 2937 2935 2933 2932 2930 2928 2926 2923 2921 2919 2917 2914 2912 2911 2909 2908 2907 2907 2906 2905 2905 2904 2903 2903 2903 2903 2903 2903 2904 2904 2903 2903 2902 2899 2897 2896 2896 2895 2895 2895 2895 2896 2895 2895 2895 2895 2895 2895 2894 2894 2893 2892
2967 2965 2963 2960 2958 2957 2955 2953 2951 2949 2948 2946 2944 2943 2941 2939 2938 2936 2934 2932 2931 2929 2927 2925 2923 2921 2918 2916 2914 2912 2910 2909 2908 2906 2905 2905 2904 2904 2903 2903 2902 2902 2902 2902 2902 2903 2903 2902 2902 2900 2899 2897 2896 2895 2895 2895 2895 2895 2895 2895 2895 2895 2895 2895 2895 2894 2894 2894 2894
2966 2963 2961 2959 2957 2955 2953 2952 2950 2948 2946 2944 2943 2941 2940 2938 2937 2935 2933 2931 2929 2928 2926 2924 2922 2920 2918 2916 2914 2912 2910 2909 2907 2906 2905 2904 2903 2903 2903 2902 2902 2901 2901 2900 2900 2901 2901 2901 2901 2900 2898 2896 2895 2895 2894 2894 2894 2894 2894 2895 2895 2895 2895 2895 2895 2894 2894 2894 2894
2965 2963 2960 2958 2956 2954 2952 2950 2948 2947 2945 2943 2941 2940 2938 2937 2935 2934 2932 2930 2928 2927 2925 2923 2922 2920 2918 2916 2914 2912 2910 2909 2907 2906 2905 2903 2902 2902 2902 2901 2901 2900 2900 2899 2899 2899 2899 2899 2900 2900 2898 2896 2895 2894 2894 2894 2894 2894 2894 2894 2894 2894 2895 2895 2895 2894 2893 2892 2892
2964 2962 2959 2958 2955 2953 2951 2949 2948 2946 2944 2942 2940 2938 2937 2936 2934 2933 2931 2929 2928 2926 2924 2923 2921 2919 2917 2915 2914 2912 2910 2909 2907 2906 2904 2903 2902 2901 2900 2900 2900 2899 2899 2898 2898 2898 2898 2898 2898 2899 2899 2897 2896 2894 2894 2893 2893 2893 2893 2893 2893 2894 2894 2894 2894 2894 2893 2892 2891